Other Public Products
Issued by NWS Charleston, SC

Current Version | Previous Version | Graphics & Text | Print | Product List | Glossary On
Versions: 1 2 3 4 5 6 7 8 9 10 11 12 13 14 15 16 17 18 19 20 21 22 23 24 25 26 27 28 29 30 31 32 33 34 35 36 37 38 39 40 41 42 43 44 45 46 47 48 49 50
000 FPUS82 KCHS 181927 OPUCHS TEST...KCHS/KSAV Gateway Observations...TEST National Weather Service Charleston SC 300 PM EDT WED OCT 18 2017 NOTE: "fair" indicates few or no clouds below 12,000 feet with no significant weather and/or obstructions to visibility. SCZ050-WAZ558-NCZ071-TXZ119-213-PAZ071-DCZ001-FLZ074-172-MI076- NYZ176-178-MAZ016-IL014-TNZ027-NJZ106-GAZ044-MD014-182000- ...Gateway Observations for Charleston International... CITY SKY/WX TMP DP RH WIND PRES REMARKS Chas Airport MOSUNNY 74 58 57 NE14 30.25F Seattle LGT RAIN 50 48 93 SE17 29.76F Charlotte MOSUNNY 68 35 29 CALM 30.33F Dallas DFW MOSUNNY 80 42 25 S9 30.11F Dallas Love MOSUNNY 78 45 30 S8 30.12F Philladelphia SUNNY 70 44 39 SW8 30.30F Wash National SUNNY 70 44 39 S9 30.34F Baltimore SUNNY 70 43 37 S5 30.32F Miami CLOUDY 86 72 62 N7 29.99F HX 92 Detroit SUNNY 69 41 36 S17 30.17F Newark SUNNY 72 46 39 VRB6 30.26F Laguardia SUNNY 73 44 35 CALM 30.26F J F K SUNNY 70 48 45 SW9 30.28F Boston Logan MOSUNNY 71 39 31 W10 30.21F Ft. Lauderdale CLOUDY 84 76 76 VRB7 29.98F HX 93 Chicago O`Hare SUNNY 69 44 40 S21G28 30.07F Chicago Midway SUNNY 70 42 36 S16G23 30.08F Houston Bush SUNNY 81 57 43 VRB5 30.14F Houston Hobby MOSUNNY 83 59 44 SE6 30.13F Nashville MOSUNNY 71 41 33 S6 30.27F Atlanta MOSUNNY 69 42 37 E8 30.28F $$ GAZ044-118-TXZ119-213-NCZ071-DCZ001-MDZ014-506-PAZ021-071-NJZ106- NYZ176-178-MAZ106-OHZ011-021-055-MIZ076-KYZ091-ILZ014-INZ047- MNZ060-ONZ431-182000- ...Gateway Observations for Savannah International... CITY SKY/WX TMP DP RH WIND PRES REMARKS Savannah Arpt MOSUNNY 76 58 53 VRB5 30.23F Atlanta MOSUNNY 69 42 37 E8 30.28F Charlotte MOSUNNY 68 35 29 CALM 30.33F Dallas DFW MOSUNNY 80 42 25 S9 30.11F Houston Bush SUNNY 81 57 43 VRB5 30.14F Wash National SUNNY 70 44 39 S9 30.34F Wash Dulles MOSUNNY 69 42 37 SE6 30.33F Baltimore SUNNY 70 43 37 S5 30.32F Philadelphia SUNNY 70 44 39 SW8 30.30F Newark SUNNY 72 46 39 VRB6 30.26F Laguardia SUNNY 73 44 35 CALM 30.26F J F K SUNNY 70 48 45 SW9 30.28F Boston MOSUNNY 71 39 31 W10 30.21F Pittsburg MOSUNNY 68 40 35 S6 30.27F Akron MOSUNNY 68 41 37 SW13 30.25F Cleveland SUNNY 70 43 37 S14 30.23F Cincinnati MOSUNNY 68 46 45 S8 30.24F Columbus SUNNY 67 40 37 S9 30.24F Detroit SUNNY 69 41 36 S17 30.17F Chicago O`Hare SUNNY 69 44 40 S21G28 30.07F Minneapolis PTSUNNY 67 46 47 W10 29.85R Indianapolis MOSUNNY 68 45 43 S12 30.21F Toronto Canada SUNNY 72 45 37 S14G25 30.14F $$

USA.gov is the U.S. government's official web portal to all federal, state and local government web resources and services.